[[{"header":{"parameterUnit":"m.s-1","parameterCategory":1,"la1":30.2991,"la2":30.254,"lo1":-89.0895,"lo2":-89.0444,"dy":0.0017,"dx":0.0017,"nx":28,"ny":28,"refTime":"2025-12-20T09:00:00:Z","depth":0,"parameterNumber":2,"parameterNumberName":"U-component_of_WINDS"},"data":[0,0,0,0,0,0,0,0,0,0,0,0,0,0,0,0,0,0,0,0,0,0,0,0,0,0,0,0,0,0,0,0,0,0,0,0,0,0,0,0,0,0,0,0,0,0,0,0,0,0,0,0,0,0,0,0,0,0,-2.8865,-2.8866,0,-2.8909,-2.8909,-2.891,-2.8814,-2.881,-2.8807,-2.8804,-2.8849,-2.8853,-2.8857,0,0,0,0,0,0,0,0,0,0,0,0,0,-2.8699,-2.8702,-2.8865,-2.8866,-2.8866,-2.8909,-2.8909,-2.891,-2.8814,-2.881,-2.8807,-2.8803,-2.8848,-2.8853,-2.8857,0,0,0,0,0,0,0,0,0,0,0,0,0,-2.876,-2.8703,-2.8865,-2.8823,-2.882,-2.8909,-2.8909,-2.891,-2.8815,-2.881,-2.8806,-2.8801,-2.8846,-2.8852,-2.8858,-2.8989,0,0,-2.8877,-2.8879,0,0,0,0,0,0,0,0,-2.8756,-2.8766,-2.8829,-2.8826,-2.8823,-2.8851,-2.8867,-2.8936,-2.8816,-2.8817,-2.8804,-2.8799,-2.8853,-2.8859,-2.8877,-2.8991,-2.8993,-2.8877,-2.8881,-2.8884,-2.8885,0,0,0,0,0,0,0,-2.8752,-2.8763,-2.8882,-2.883,-2.8826,-2.8803,-2.8806,-2.888,-2.8861,-2.8816,-2.881,-2.8816,-2.8851,-2.8871,-2.8877,-2.8993,-2.8877,-2.8883,-2.8886,-2.8889,-2.9217,-2.9222,0,0,0,0,0,0,-2.8753,-2.876,-2.8881,-2.8884,-2.8777,-2.8809,-2.8813,-2.8847,-2.886,-2.8857,-2.882,-2.8811,-2.8863,-2.887,-2.8879,-2.9033,-2.8884,-2.8889,-2.8893,-2.9212,-2.9218,-2.9223,0,0,0,0,0,0,-2.875,-2.8765,-2.8879,-2.882,-2.8833,-2.8817,-2.8855,-2.885,-2.887,-2.8862,-2.8858,-2.8845,-2.886,-2.887,-2.8962,-2.9033,-2.8892,-2.8898,-2.9206,-2.9214,-2.9221,-2.9343,0,0,0,0,0,0,-2.8746,-2.8764,-2.8814,-2.8822,-2.8836,-2.8963,-2.886,-2.8854,-2.8881,-2.887,-2.8884,-2.8882,-2.8857,-2.8954,-2.8968,-2.9039,-2.8902,-2.92,-2.9209,-2.9218,-2.9332,-2.9353,-2.9371,0,0,0,0,0,-2.874,-2.8846,-2.8817,-2.8832,-2.8898,-2.8967,-2.8975,-2.8944,-2.8887,-2.8937,-2.8932,-2.8882,-2.9023,-2.8964,-2.898,-2.9053,-2.9195,-2.9207,-2.9218,-2.9323,-2.9349,-2.9371,0,0,0,0,0,0,-2.8847,-2.8847,-2.8814,-2.8926,-2.8947,-2.895,-2.9012,-2.8972,-2.901,-2.8998,-2.8958,-2.8962,-2.9062,-2.9066,-2.9001,-2.918,-2.9099,-2.9114,-2.9174,-2.9199,-2.9218,-2.9215,-2.8908,0,0,0,0,0,-2.8883,-2.8939,-2.8936,-2.9035,-2.9047,-2.9028,-2.9057,-2.9031,-2.9051,-2.906,-2.9061,-2.9083,-2.9132,-2.9165,-2.921,-2.9332,-2.9334,-2.939,-2.941,-2.9426,-2.944,-2.9505,-2.953,-2.9261,-2.9261,-2.9261,0,0,-2.8959,-2.8966,-2.9004,-2.9057,-2.907,-2.9129,-2.9036,-2.9102,-2.9146,-2.907,-2.9157,-2.9159,-2.9181,-2.9289,-2.9336,-2.9295,-2.9515,-2.9441,-2.9454,-2.9459,-2.9519,-2.9545,-2.9568,-2.9269,-2.9267,-2.9266,0,0,-2.9128,-2.9139,-2.9223,-2.9238,-2.926,-2.9246,-2.9267,-2.9276,-2.9275,-2.9362,-2.9306,-2.9357,-2.9442,-2.946,-2.948,-2.9656,-2.9612,-2.9672,-2.9775,-2.9839,-2.986,-2.9879,-2.9943,-2.9966,-2.9685,-2.9686,-2.9686,0,-2.9221,-2.9307,-2.9271,-2.9342,-2.9367,-2.9301,-2.9386,-2.9402,-2.9437,-2.9456,-2.941,-2.9516,-2.9525,-2.9637,-2.968,-2.9698,-2.972,-2.9671,-2.986,-2.9879,-2.9895,-2.9956,-2.9979,-2.9693,-2.9692,-2.9691,-2.9691,0,-2.9419,-2.948,-2.9546,-2.9582,-2.9614,-2.9691,-2.9667,-2.9704,-2.9676,-2.9667,-2.9757,-2.9766,-2.9812,-2.9836,-2.9809,-2.9944,-2.9918,-2.9867,-2.9784,-2.9929,-2.9985,-3.0008,-2.9703,-2.9701,-2.9699,-2.9697,0,0,-2.9658,-2.9673,-2.9697,-2.9713,-2.9732,-2.9778,-2.9852,-2.9897,-2.993,-2.9956,-3.0018,-3.0092,-3.0044,-3.0068,-3.0041,-3.0098,-3.0238,-3.0039,-3.0039,-3.0077,-3.0388,-3.0427,-3.0454,-3.0208,-3.0212,-3.0215,-3.0386,0,-2.9826,-2.9954,-2.9924,-3.005,-3.0106,-3.0044,-3.0109,-3.0128,-3.0122,-3.0168,-3.0161,-3.0215,-3.0148,-3.0161,-3.0214,-3.021,-3.03,-3.0196,-3.0265,-3.0268,-3.0263,-3.0483,-3.0525,-3.0686,-3.0408,-3.0411,-3.0414,0,-3.0039,-3.0074,-3.0206,-3.0216,-3.0238,-3.0297,-3.0336,-3.0381,-3.0401,-3.0393,-3.0419,-3.0382,-3.0455,-3.0372,-3.0473,-3.0404,-3.043,-3.0432,-3.0437,-3.0443,-3.0351,-3.0496,-3.0736,-3.0761,-3.0448,-3.0445,-3.0443,0,-3.02,-3.028,-3.037,-3.0385,-3.0399,-3.0442,-3.0449,-3.0464,-3.0493,-3.0527,-3.0546,-3.0588,-3.0611,-3.0644,-3.062,-3.0561,-3.0725,-3.0639,-3.0721,-3.0722,-3.0759,-3.0757,-3.1008,-3.0775,-3.0774,-3.0774,-3.0773,0,-3.0392,-3.0475,-3.0443,-3.0498,-3.059,-3.0554,-3.0646,-3.0647,-3.0661,-3.0715,-3.0664,-3.0716,-3.068,-3.0729,-3.071,-3.0797,-3.0807,-3.0803,-3.0797,-3.0808,-3.0809,-3.0826,-3.0814,-3.078,-3.0779,-3.0778,-3.0776,0,-3.0588,-3.057,-3.0663,-3.0669,-3.0672,-3.0739,-3.0744,-3.0795,-3.0785,-3.0855,-3.0869,-3.0854,-3.0909,-3.0887,-3.0946,-3.0933,-3.1045,-3.1023,-3.1038,-3.1033,-3.1116,-3.1109,-3.1387,-3.1422,-3.1166,-3.1168,-3.117,0,-3.0712,-3.0775,-3.0787,-3.082,-3.0831,-3.0885,-3.0914,-3.0881,-3.0914,-3.0942,-3.099,-3.104,-3.1079,-3.117,-3.1164,-3.1209,-3.1189,-3.1283,-3.1196,-3.1205,-3.1192,-3.1189,-3.1195,-3.1301,-3.1304,-3.1307,-3.1309,0,-3.0934,-3.0922,-3.0966,-3.1008,-3.1044,-3.1075,-3.1102,-3.1132,-3.11,-3.114,-3.1196,-3.1226,-3.1286,-3.1337,-3.1377,-3.1384,-3.1342,-3.1336,-3.1358,-3.137,-3.1376,-3.1375,-3.1087,-3.133,-3.1328,-3.1327,-3.1325,-3.1325,-3.1098,-3.1152,-3.1169,-3.122,-3.1236,-3.1263,-3.1311,-3.1308,-3.1354,-3.14,-3.1378,-3.1443,-3.1461,-3.151,-3.1523,-3.1574,-3.1537,-3.1568,-3.1576,-3.1584,-3.1595,-3.1368,-3.1581,-3.158,-3.1579,-3.1579,-3.1578,0,-3.1318,-3.1326,-3.1374,-3.1413,-3.1453,-3.1409,-3.1437,-3.1473,-3.1531,-3.1552,-3.1591,-3.1656,-3.1705,-3.1703,-3.1749,-3.1789,-3.1771,-3.1803,-3.18,-3.1802,-3.1625,-3.1602,-3.1817,-3.1817,-3.1817,-3.1816,-3.1816,-3.1816,-3.1438,-3.1526,-3.1516,-3.1611,-3.1618,-3.1682,-3.1701,-3.1725,-3.1741,-3.1816,-3.1857,-3.1855,-3.1866,-3.1912,-3.1956,-3.1954,-3.1974,-3.2013,-3.2004,-3.1838,-3.1815,-3.1792,-3.1771,-3.2017,-3.2017,-3.2177,-3.2178,-3.2179]},{"header":{"parameterUnit":"m.s-1","parameterCategory":1,"la1":30.2991,"la2":30.254,"lo1":-89.0895,"lo2":-89.0444,"dy":0.0017,"dx":0.0017,"nx":28,"ny":28,"refTime":"2025-12-20T09:00:00:Z","depth":0,"parameterNumber":3,"parameterNumberName":"V-component_of_WINDS"},"data":[0,0,0,0,0,0,0,0,0,0,0,0,0,0,0,0,0,0,0,0,0,0,0,0,0,0,0,0,0,0,0,0,0,0,0,0,0,0,0,0,0,0,0,0,0,0,0,0,0,0,0,0,0,0,0,0,0,0,-0.7618,-0.7618,0,-0.7623,-0.7623,-0.7623,-0.7636,-0.7636,-0.7637,-0.7637,-0.7643,-0.7643,-0.7643,0,0,0,0,0,0,0,0,0,0,0,0,0,-0.7617,-0.7616,-0.7618,-0.7618,-0.7618,-0.7623,-0.7623,-0.7623,-0.7636,-0.7636,-0.7637,-0.7637,-0.7643,-0.7643,-0.7643,0,0,0,0,0,0,0,0,0,0,0,0,0,-0.7619,-0.7616,-0.7618,-0.7625,-0.7625,-0.7623,-0.7623,-0.7623,-0.7636,-0.7636,-0.7637,-0.7637,-0.7643,-0.7643,-0.7643,-0.7634,0,0,-0.7642,-0.7642,0,0,0,0,0,0,0,0,-0.7619,-0.7619,-0.7624,-0.7624,-0.7625,-0.7629,-0.7625,-0.7627,-0.7636,-0.7632,-0.7637,-0.7637,-0.7638,-0.7638,-0.7638,-0.7634,-0.7635,-0.7642,-0.7642,-0.7642,-0.7642,0,0,0,0,0,0,0,-0.7619,-0.7619,-0.762,-0.7624,-0.7624,-0.7627,-0.7628,-0.7626,-0.7633,-0.7632,-0.7633,-0.7634,-0.7638,-0.7639,-0.7639,-0.7635,-0.7642,-0.7642,-0.7642,-0.7642,-0.7622,-0.7622,0,0,0,0,0,0,-0.7618,-0.7619,-0.762,-0.762,-0.7623,-0.7627,-0.7628,-0.7628,-0.7633,-0.7634,-0.7633,-0.7634,-0.7639,-0.7639,-0.7639,-0.7628,-0.7642,-0.7642,-0.7642,-0.7622,-0.7622,-0.7621,0,0,0,0,0,0,-0.7618,-0.7618,-0.7619,-0.762,-0.762,-0.7627,-0.7626,-0.7627,-0.7628,-0.7634,-0.7635,-0.7632,-0.7639,-0.7639,-0.7635,-0.7629,-0.7642,-0.7642,-0.7623,-0.7622,-0.7622,-0.7607,0,0,0,0,0,0,-0.7617,-0.7617,-0.7615,-0.7619,-0.762,-0.7615,-0.7626,-0.7627,-0.7627,-0.7629,-0.7633,-0.7634,-0.7639,-0.7635,-0.7635,-0.7629,-0.7642,-0.7624,-0.7623,-0.7622,-0.7608,-0.7606,-0.7604,0,0,0,0,0,-0.7617,-0.7611,-0.7614,-0.7615,-0.7617,-0.7615,-0.7615,-0.7622,-0.7627,-0.7624,-0.7627,-0.7634,-0.7629,-0.7634,-0.7634,-0.7628,-0.7624,-0.7623,-0.7622,-0.7609,-0.7607,-0.7604,0,0,0,0,0,0,-0.7606,-0.7612,-0.7616,-0.7611,-0.7612,-0.7617,-0.7614,-0.7619,-0.7619,-0.762,-0.7628,-0.7629,-0.7623,-0.7625,-0.7631,-0.7619,-0.7628,-0.7626,-0.7618,-0.7616,-0.7614,-0.7613,-0.7641,0,0,0,0,0,-0.7602,-0.7601,-0.7606,-0.7601,-0.7601,-0.7607,-0.7607,-0.7611,-0.7613,-0.7614,-0.7617,-0.7619,-0.7618,-0.7617,-0.7616,-0.7609,-0.7609,-0.7604,-0.7602,-0.7601,-0.76,-0.7594,-0.7592,-0.7618,-0.7618,-0.7618,0,0,-0.7596,-0.7599,-0.7597,-0.7598,-0.76,-0.7598,-0.7608,-0.7605,-0.7603,-0.7614,-0.7609,-0.7612,-0.7614,-0.7608,-0.7605,-0.7609,-0.7592,-0.7599,-0.7598,-0.7598,-0.7593,-0.759,-0.7588,-0.7617,-0.7617,-0.7618,0,0,-0.7582,-0.7585,-0.758,-0.7581,-0.7584,-0.7587,-0.7586,-0.759,-0.7592,-0.7588,-0.7595,-0.7593,-0.7591,-0.7591,-0.7592,-0.7577,-0.7582,-0.7576,-0.7566,-0.7561,-0.7559,-0.7557,-0.755,-0.7548,-0.7575,-0.7575,-0.7575,0,-0.7574,-0.7571,-0.7577,-0.7573,-0.7573,-0.7582,-0.7577,-0.7578,-0.758,-0.7579,-0.7584,-0.7581,-0.7583,-0.7576,-0.7572,-0.7572,-0.7571,-0.7576,-0.7558,-0.7557,-0.7555,-0.7549,-0.7547,-0.7574,-0.7574,-0.7574,-0.7575,0,-0.7559,-0.7557,-0.7553,-0.7554,-0.7553,-0.7549,-0.7554,-0.7553,-0.7557,-0.756,-0.7554,-0.7557,-0.7557,-0.7555,-0.756,-0.7549,-0.7551,-0.7557,-0.7565,-0.7552,-0.7546,-0.7544,-0.7573,-0.7573,-0.7574,-0.7574,0,0,-0.7539,-0.7543,-0.7541,-0.7541,-0.7543,-0.7542,-0.7537,-0.7536,-0.7534,-0.7535,-0.7531,-0.7528,-0.7533,-0.7533,-0.7538,-0.7533,-0.752,-0.754,-0.754,-0.7535,-0.7506,-0.7501,-0.7499,-0.7523,-0.7523,-0.7523,-0.7506,0,-0.7526,-0.7518,-0.7523,-0.7515,-0.7512,-0.752,-0.7516,-0.7516,-0.7519,-0.7516,-0.7519,-0.7517,-0.7524,-0.7524,-0.752,-0.7522,-0.7514,-0.7524,-0.7519,-0.7519,-0.7518,-0.7496,-0.7491,-0.7475,-0.7504,-0.7503,-0.7503,0,-0.7509,-0.7509,-0.75,-0.7501,-0.75,-0.7497,-0.7495,-0.7493,-0.7494,-0.7496,-0.7495,-0.75,-0.7495,-0.7503,-0.7496,-0.7502,-0.7501,-0.7502,-0.7501,-0.7501,-0.751,-0.7494,-0.747,-0.7467,-0.75,-0.75,-0.75,0,-0.7494,-0.7491,-0.7485,-0.7485,-0.7487,-0.7484,-0.7485,-0.7485,-0.7484,-0.7483,-0.7482,-0.748,-0.7479,-0.7477,-0.7481,-0.7487,-0.7473,-0.7482,-0.7474,-0.7474,-0.747,-0.747,-0.7445,-0.747,-0.747,-0.747,-0.7471,0,-0.7479,-0.7473,-0.7478,-0.7474,-0.7467,-0.7473,-0.7466,-0.7467,-0.7468,-0.7464,-0.747,-0.7467,-0.7472,-0.7469,-0.7472,-0.7465,-0.7465,-0.7466,-0.7466,-0.7465,-0.7464,-0.7463,-0.7464,-0.747,-0.747,-0.747,-0.747,0,-0.7461,-0.7464,-0.7458,-0.746,-0.746,-0.7455,-0.7456,-0.7452,-0.7455,-0.745,-0.7449,-0.7452,-0.7448,-0.7452,-0.7449,-0.7451,-0.7441,-0.7444,-0.7441,-0.7441,-0.7432,-0.7433,-0.7405,-0.7401,-0.7429,-0.7429,-0.7429,0,-0.745,-0.7446,-0.7447,-0.7444,-0.7444,-0.7441,-0.7439,-0.7444,-0.7442,-0.7441,-0.7437,-0.7433,-0.7431,-0.7424,-0.7426,-0.7423,-0.7426,-0.7416,-0.7425,-0.7423,-0.7424,-0.7424,-0.7423,-0.7414,-0.7414,-0.7413,-0.7413,0,-0.7431,-0.7432,-0.7429,-0.7427,-0.7424,-0.7423,-0.7421,-0.7419,-0.7424,-0.7421,-0.7417,-0.7415,-0.741,-0.7406,-0.7404,-0.7404,-0.7409,-0.741,-0.7408,-0.7406,-0.7404,-0.7404,-0.7435,-0.7411,-0.7411,-0.7411,-0.7411,-0.7411,-0.7416,-0.7411,-0.7411,-0.7407,-0.7406,-0.7405,-0.7401,-0.7402,-0.7399,-0.7395,-0.7398,-0.7393,-0.7392,-0.7389,-0.7388,-0.7384,-0.7388,-0.7385,-0.7384,-0.7383,-0.7381,-0.7405,-0.7384,-0.7384,-0.7384,-0.7384,-0.7384,0,-0.7396,-0.7395,-0.7392,-0.7389,-0.7386,-0.7391,-0.7389,-0.7386,-0.7381,-0.738,-0.7377,-0.7371,-0.7367,-0.7368,-0.7364,-0.736,-0.7362,-0.7359,-0.7359,-0.7359,-0.7379,-0.738,-0.7357,-0.7357,-0.7357,-0.7357,-0.7357,-0.7357,-0.7385,-0.7377,-0.7378,-0.737,-0.737,-0.7365,-0.7363,-0.7361,-0.736,-0.7353,-0.735,-0.735,-0.735,-0.7346,-0.7342,-0.7342,-0.734,-0.7336,-0.7337,-0.7355,-0.7358,-0.736,-0.7362,-0.7335,-0.7335,-0.7318,-0.7317,-0.7317]}]]